Location: Unspecified
(33.4390°N, 83.7350°W)
Time: 08:47:52
(UTC-04:00)

Daily predictions for brighter satellites

Satellite Brightness Start Highest point End
(mag) Time Altitude Azimuth Time Altitude Azimuth Time Altitude Azimuth
CZ-4 R/B 3.6 19:51:04 10° SSW 19:54:43 32° W 19:58:27 10° NNW
COSMO-SKYMED 1 3.4 19:53:08 10° N 19:57:23 56° WNW 20:01:37 10° SSW
Cosmos 1709 Rocket 4.1 19:52:19 10° S 19:58:29 59° E 20:04:43 10° NNE
Cosmos 1707 4.3 19:55:51 10° NNE 19:58:33 18° ENE 20:01:14 10° ESE
FENGYUN 3A 3.7 19:57:54 10° SSE 20:03:06 56° ENE 20:08:21 10° N
Cosmos 2369 Rocket 2.3 19:58:03 10° NNW 20:03:38 59° ENE 20:09:08 10° SSE
USA 234 4.2 19:59:39 10° SSE 20:05:56 50° SW 20:12:16 10° NW
Cosmos 1340 Rocket 3.7 20:02:24 10° NNE 20:05:56 28° ENE 20:09:28 10° SE
Cosmos 1758 Rocket 4.3 20:02:56 10° NNE 20:06:59 32° E 20:11:01 10° SE
Cosmos 389 Rocket 2.6 20:03:56 10° S 20:07:22 52° E 20:10:48 10° NNE
ALOS 2.3 20:02:54 10° SSE 20:07:30 65° ENE 20:12:08 10° N
Geosat 4.0 20:04:41 10° SE 20:09:39 66° ENE 20:14:39 10° NNW
OAO 2 Rocket 3.7 20:05:04 10° W 20:10:21 66° SSW 20:15:36 10° ESE
Cosmos 1726 Rocket 3.8 20:06:36 10° SSE 20:10:48 47° E 20:14:59 10° NNE
Lacrosse 5 1.9 20:06:36 10° NNW 20:11:39 65° NE 20:16:40 10° SE
Cosmos 1271 Rocket 2.6 20:09:46 10° S 20:13:30 85° E 20:17:18 10° N
FREGAT/IRIS 3.0 20:13:31 10° SSE 20:16:25 42° ENE 20:19:18 10° N
Resurs 01 Rocket 3.2 20:16:42 13° E 20:18:51 17° ENE 20:21:43 10° NNE
Cosmos 1943 4.4 20:16:14 10° SW 20:21:39 46° WNW 20:27:07 10° N
Cosmos 2263 4.2 20:16:24 10° NNW 20:21:57 60° ENE 20:27:30 10° SSE
Cosmos 2298 Rocket 4.5 20:21:30 10° N 20:26:32 40° ENE 20:31:30 10° SE
CZ-2D R/B 4.4 20:26:32 17° ESE 20:28:13 23° ENE 20:31:16 10° NNE
FALCON 9 R/B 1.3 20:26:05 10° W 20:28:46 86° N 20:33:19 16° E
Cosmos 468 Rocket 4.4 20:24:25 10° SSW 20:29:34 67° WNW 20:34:47 10° N
SJ-6B 3.0 20:27:29 10° SSE 20:31:27 52° ENE 20:35:21 10° N
Cosmos 841 Rocket 3.6 20:26:38 10° S 20:31:34 48° ESE 20:36:30 10° NNE
Cosmos 1937 Rocket 3.8 20:30:08 10° N 20:35:15 48° ENE 20:39:53 12° SE
Cosmos 371 Rocket 4.4 20:32:23 10° SW 20:37:04 48° WNW 20:41:48 10° N
Cosmos 1378 3.3 20:33:32 10° N 20:37:12 47° E 20:40:42 11° SSE
Meteor 1-24 Rocket 4.5 20:35:15 10° NNE 20:40:36 34° ENE 20:43:59 19° SE
USA 229 DEB 3.9 20:33:43 10° NNW 20:40:52 62° ENE 20:46:57 15° SE
USA 229 3.9 20:33:50 10° NNW 20:40:58 61° ENE 20:46:59 16° SE
Cosmos 909 Rocket 4.5 20:33:39 10° NNW 20:42:05 63° ENE 20:47:51 15° SE
HJ-1C 3.2 20:41:24 10° SSE 20:44:40 72° ENE 20:48:00 10° N
Cosmos 2058 Rocket 3.0 20:41:25 10° S 20:45:46 89° E 20:50:08 10° N
Cosmos 2084 3.3 20:45:09 10° SSW 20:49:21 83° WNW 20:53:18 10° NNE
Cosmos 2228 3.0 20:46:14 10° S 20:50:36 87° W 20:54:59 10° N
Cosmos 1953 Rocket 3.7 20:49:03 10° N 20:53:23 73° W 20:57:39 10° S
Cosmos 1763 Rocket 3.7 20:49:27 10° SSW 20:54:30 71° WNW 20:59:38 10° NNE
Shenzhou-11 Module 4.4 20:53:48 10° W 20:55:54 17° SW 20:57:18 13° S
MOS 1-B Rocket 4.3 20:55:10 21° SE 20:59:05 45° ENE 21:04:37 10° N
Cosmos 540 Rocket 3.6 20:58:59 10° S 21:03:50 47° ESE 21:08:43 10° NNE
ATLAS CENTAUR R/B 3.2 20:52:13 10° NW 21:03:55 51° NE 21:05:46 36° E
Meteor 2-5 Rocket 3.8 21:00:13 10° N 21:06:06 85° W 21:11:50 10° S
GEOS 3 Rocket 3.6 21:03:23 10° NE 21:08:47 80° ESE 21:14:09 10° SSW
H-2A R/B 4.2 21:07:18 10° SSW 21:10:43 36° W 21:14:11 10° NNW
Meteor 1-22 Rocket 4.2 21:05:41 10° S 21:11:33 86° E 21:17:12 10° N
Cosmos 1943 Rocket 2.7 21:07:00 10° NNW 21:12:29 58° WSW 21:17:55 10° S
Spot 2 Rocket 3.4 21:12:52 43° SE 21:14:19 63° ENE 21:19:18 10° N
Cosmos 836 Rocket 4.4 21:10:57 10° S 21:16:11 68° ESE 21:21:25 10° NNE
BREEZE-M DEB (TANK) 4.1 21:04:29 10° WSW 21:18:23 64° NW 21:21:11 25° NE
Cosmos 1766 3.3 21:15:25 10° S 21:19:21 76° W 21:23:17 10° N
OAO 3 Copernicus 4.2 21:16:48 10° WSW 21:21:51 89° NNW 21:22:40 64° ENE
GPS 2-04 Rocket1 3.9 21:18:30 10° W 21:22:25 34° SSW 21:22:45 34° SSW
Cosmos 2154 Rocket 3.9 21:22:07 18° S 21:26:47 64° E 21:32:57 10° NNE
COSMOS 2406 3.2 21:22:24 10° SSW 21:28:05 85° WNW 21:33:50 10° NNE
Tiangong 2 3.7 21:28:59 10° W 21:30:36 16° SW 21:30:36 16° SW
Cosmos 2341 Rocket 4.5 21:34:13 41° NE 21:34:13 41° NE 21:38:38 10° NNE
Cosmos 1125 Rocket 4.3 21:35:08 10° N 21:38:48 38° NNE 21:38:48 38° NNE
Resurs 1-3 4.1 21:40:34 53° SW 21:40:59 55° W 21:45:18 10° NNW
Envisat 3.2 21:45:43 61° SW 21:46:19 67° WSW 21:51:23 10° NNW
Lacrosse 5 4.4 21:51:16 10° W 21:54:05 15° WSW 21:56:38 11° SSW
Resurs 01 Rocket 3.0 21:54:17 32° WSW 21:55:00 35° W 21:59:03 10° NNW
Cosmos 1656 Rocket 4.0 21:49:35 10° NNW 21:55:08 60° WSW 21:55:34 58° SW
Nadezhda 3 Rocket 4.0 21:59:26 10° N 22:05:26 77° NW 22:05:26 77° NW
BREEZE-M (TANK) 4.1 21:58:44 10° NW 22:05:13 43° W 22:05:13 43° W
ATLAS 2AS CENTAUR R/B 4.4 22:20:50 10° N 22:25:45 25° NNE 22:25:45 25° NNE
Milstar 3 Cent rocket 4.4 22:25:22 10° WSW 22:25:52 13° WSW 22:25:52 13° WSW
NOSS 3-1 (A) 4.3 22:28:47 10° NW 22:36:22 66° WSW 22:36:22 66° WSW
